Main page
METAR-TAF:

METAR-TAF

Airports :

Imeson Field

Jacksonville, Illinois, United States

latitude: 39-46-27N, longitude: 090-14-19W, elevation: 623 ft

Current weather observation

The report was made 36 minutes ago, at 12:55 UTC
Wind 6 mph from the South/Southwest
Temperature 77°F
Humidity 69%
Pressure 30.25 in. Hg
Visibility: 10 miles
Scattered clouds at a height of 5000 ft

METAR: KIJX 211255Z AUTO 21005KT 10SM SCT050 25/19 A3025 RMK AO2 T02480191

Time: 08:31 (13:31 UTC)


TAF: missing

Weather observations and forecasts of more than 4000 airports (METAR and TAF reports).

The available stations are represented by yellow and red dots on the map.

Hover mouse over dot to see the name of the station.

Then click to see weather observations and forecasts.

To change the map : click on the green buttons with a black cross to zoom in, on the green button with a dash to zoom out, or on the green arrows for adjacent maps.


METAR-TAF: